Location: Clyde
(45.1830°S, 169.3170°E)
Time: 17:02:52
(UTC+13:00)

Cosmos 2208 Rocket - Pass Details

Date: 24 January 2019
Orbit: 754 x 806 km, 74.0° (Epoch: 19 February)

Event Time Altitude Azimuth Distance (km) Brightness Sun altitude
Rises 21:54:59 0° 201° (SSW) 3,249 8.3 -5.7°
Reaches altitude 10° 21:57:23 10° 200° (SSW) 2,319 7.4 -6.1°
Maximum altitude 22:02:39 82° 111° (ESE) 784 4.0 -6.8°
Drops below altitude 10° 22:07:55 10° 23° (NNE) 2,311 6.0 -7.6°
Enters shadow 22:09:00 - 22° (NNE) 2,735 6.3 -7.7°
